Погода в Кондопоге

Погода в Кондопоге : погода сейчас, прогноз погоды и архив. Всё, что Вы хотите узнать о погоде в Кондопоге!

Поиск расширенной информации на нашем сайте:

Другие новости

Новости СМИ2

Главная страница сайта

Новости сайта

03.07.2017

Напоминаем, что на нашем специализированном сайте Метеоцентр.Азия вы можете получить высокодетализированные автоматические прогнозы погоды по пунктам России, СНГ и мира в авиационном формате (включающие направление и скорость ветра, видимость, явления погоды, количество и форму облачности, нижнюю и верхнюю границу облачности).


Погода в Кондопоге - сегодня

Время (UTC), дата Ветер
(°,м/с) 
Видим.   Явления Облачность Т
(°С)
Тd
(°С)
f(%) Тe
(°С)
Pmin
(гПа)
dP
(гПа)
Po
(мм)
O2
(г/м3)
Тmin Tmax R s Состояние
почвы
15 10.12.17 150 (ЮВ) 7-11{12}  н/о    н/о 
+1.2 -1.3 83 -2  1004.5  -0.7  750  301           
18 10.12.17 140 (ЮВ) 6-11{13}  10 км  слаб. ливневой снег  10/10 360 м кучево-дожд. 
[Cb cap]
+0.9 -0.9 88 -2  1004.2  -0.3  750  301    +1.4  0.0     
21 10.12.17 140 (ЮВ) 6{11}  н/о    н/о 
+0.6 -0.4 93 -3  1004.1  0.1  749  301           
00 11.12.17 150 (ЮВ) 5{11}  н/о    н/о 
+0.8 -0.6 90 -2  1004.1  749  301           
03 11.12.17 150 (ЮВ) н/о    н/о 
+0.9 -0.6 90 -1  1003.9  -0.2  749  301  +0.5         
06 11.12.17 140 (ЮВ) 2000 м  слаб. снег  10/10 300 м кучево-дожд. 
[Cb calv]
+0.4 -0.3 95 1004  0.1  749  302  +0.4    неравномерный
мокрый или
старый снег
100% 
09 11.12.17 140 (ЮВ) н/о    н/о 
+0.2 -0.3 96 -2  1004.3  0.3  750  302           
12 11.12.17 130 (ЮВ) н/о    н/о 
+0.6 +0 96 1004.8  0.5  750  302           
15 11.12.17 140 (ЮВ) н/о    н/о 
+0.9 +0.2 95 +2  1005.6  0.8  751  301           
18 11.12.17 150 (ЮВ) 6000 м  слаб. снег  10/0 средняя 
[Ac As]
+1.6 +0.6 93 1006.5  0.9  751  301    +1.6     
21 11.12.17 130 (ЮВ) н/о    н/о 
+1.4 +0.5 94 -1  1007.2  0.7  752  301           
00 12.12.17 160 (Ю) н/о    н/о 
+1.8 +0.5 91 1007.5  0.3  752  301           
03 12.12.17 150 (ЮВ) н/о    н/о 
+1.3 +0.3 93 -1  1008.1  0.5  752  302  +0.9         
06 12.12.17 160 (Ю) 25000 м    10/10 300 м 
[St]
+1.6 +0.3 91 -1  1008.1  752  301  +1.3    0.0  неравномерный
мокрый или
старый снег
100% 
09 12.12.17 150 (ЮВ) н/о    н/о 
+1.8 +0 88 -1  1007.7  -0.4  752  301           
12 12.12.17 150 (ЮВ) 7-12{13}  н/о    н/о 
+1.8 -0.8 83 -2  1005.2  -2.4  750  300           
15 12.12.17 140 (ЮВ) 9-14{15}  н/о    н/о 
+1.2 -1.6 82 -3  1003  -2.2  749  301           
18 12.12.17 140 (ЮВ) 12-18{20}  27000 м    10/10 1500 м 
[Sc diur, vesp]
+1.2 -1.9 80 -4  997.5  -5.5  745  299    +1.8       
21 12.12.17 150 (ЮВ) 9-15{20}  н/о    н/о 
+0.1 -0.4 96 -4  993.6  -5.6  742  299           
00 13.12.17 150 (ЮВ) 7-10{15}  н/о    н/о 
+0.7 +0.1 96 -3  991.4  -2.2  740  297           
03 13.12.17 160 (Ю) 6{11}  н/о    н/о 
+1.5 +0.4 92 -2  989.1  -2.4  738  296  +0.1         
06 13.12.17 170 (Ю) 7-10{11}  14000 м  слаб. дождь  10/10 330 м 
[Frnb|Ns]
+2.1 +0.7 90 -1  987.1  -2  737  294  +0.1    неравномерный
мокрый или
старый снег
100% 
09 13.12.17 210 (ЮЗ) 5-10{10}  н/о    н/о 
+1.8 +0.4 90 -1  987.5  0.4  737  295           
12 13.12.17 250 (З) 6-10{12}  н/о    н/о 
+0.4 -3 78 -3  992.3  4.7  741  298           
15 13.12.17 240 (ЮЗ) 6-12{13}  н/о    н/о 
-0.1 -4.8 71 -4  996.4  4.1  744  300           
Время (UTC), дата Ветер
(°,м/с) 
Видим.   Явления Облачность Т
(°С)
Тd
(°С)
f(%) Тe
(°С)
Pmin
(гПа)
dP
(гПа)
Po
(мм)
O2
(г/м3)
Тmin Tmax R s Состояние
почвы

Для получения пояснительной информации подведите курсор к названию столбца.

ПОГОДА в Кондопоге - архив

Всё, что Вы хотите узнать о погоде в Кондопоге - удобно и подробно!

Выберите нужную дату (начиная с 1 января 2015* года) и нажмите кнопку "Найти".
Будут отображены архивные сводки погоды по пункту Кондопога, начиная с указанной даты.


Отображать данные в формате CSV (для использования в таблицах Excel)


Внимание! Наш архив погоды предназначен исключительно для личного некоммерческого использования в познавательных целях. Если Вам необходимы официальные справки о состоянии погоды (для производственных, юридических, коммерческих и т.п. целей), обращайтесь в органы Росгидромета.

*Примечание: данная дата относится к архиву по метеостанциям СССР (Россия, СНГ, Балтия).
Архив по метеостанциям Зарубежной Европы и Азии (кроме Китая) хранится 10 дней, по другим регионам земного шара (Китай, Африка, Америка, Австралия, Океания) - 1 день.

Кондопога - район местоположения метеостанции


Название, широта, долгота, высота метеостанции:
Кондопога 62.2°ш. 34.3°д. 38 м над ур. моря [Российская Федерация]

Дополнительная информация

В oтличие oт бoльшинства пoгoдных сайтoв мы публикуем пoдрoбную метеoинфoрмацию в детальнoм прoфессиoнальнoм фoрмате.

Характеристики температуры и влажнoсти вoздуха измеряются на высoте 2 м в тени вдали oт зданий и деревьев.
Скoрoсть ветра измеряется на высoте 10 м (на урoвне рoста челoвека скoрoсть ветра ниже в 1.5-2 раза). Если метеoстанция нахoдится в гoрoде или в лесу, тo скoрoсть ветра занижена на 2-4 м/с пo сравнению с oткрытым местoм. Скoрoсть ветра над акватoриями крупных рек и oзёр, а также на вершинах хoлмoв на 2-5 м/с выше, чем в oбычных услoвиях.
Атмoсфернoе давление в разных тoчках местнoсти мoжет значительнo oтличаться oт давления на метеoстанции, в зависимoсти oт услoвий рельефа (при пoдъёме на 10 м давление пoнижается примернo на 1 мм рт.ст.).